Home > Weather > Brighton > Past weeks

Flag for United Kingdom Past Weather in Brighton, England, United Kingdom — Yesterday and Last 2 Weeks

Now
66 °F

Passing clouds.


Feels Like: 66 °F
Forecast: 60 / 66 °F
Wind: 3 mph from Northwest

Location: Shoreham Airport

Current Time: Jul 28, 2016 at 9:49:30 AM

Latest Report: Jul 28, 2016 at 9:20 AM


Visibility: N/A

Pressure: 29.98 "Hg

Humidity: 68%

Dew Point: 55 °F

Location of BrightonLocation

Past Weather in Brighton — Graph

°F

Brighton Temperature Yesterday

Maximum temperature yesterday: 70 °F (at 3:20 PM)
Minimum temperature yesterday: 63 °F (at 10:20 AM)
Average temperature yesterday: 66 °F

High & Low Weather Summary for the Past Weeks

 TemperatureHumidityPressure
High84 °F (Jul 19, 4:50 PM)94% (Jul 13, 6:50 PM)30.33 "Hg (Jul 13, 6:50 PM)
Low55 °F (Jul 14, 7:50 AM)49% (Jul 14, 3:20 PM)29.80 "Hg (Jul 20, 7:50 AM)
Average68 °F76%30.12 "Hg
* Reported Jul 13 8:20 AM — Jul 28 8:20 AM, Brighton, Weather by CustomWeather, © 2016

Note: Actual official high and low records may vary slightly from our data, if they occured in-between our weather recording intervals... More about our weather records

Advertising

Brighton Weather History for the Previous 24 Hours

Scroll right to see more
 ConditionsComfort  
Time TempWeatherWind HumidityBarometerVisibility
8:20 AM
Thu, Jul 28
63 °FSunny.6 mph77%29.98 "Hg10 mi
7:50 AM61 °FSunny.2 mph88%29.98 "Hg10 mi
7:50 PM
Wed, Jul 27
64 °FPassing clouds.13 mph94%29.98 "HgN/A
7:20 PM66 °FPassing clouds.13 mph88%29.98 "HgN/A
6:50 PM68 °FPassing clouds.16 mph83%29.98 "HgN/A
6:20 PM68 °FPassing clouds.15 mph88%29.98 "HgN/A
5:50 PM66 °FPassing clouds.16 mph88%29.98 "HgN/A
5:20 PM68 °FPassing clouds.16 mph83%29.98 "HgN/A
4:50 PM66 °FScattered clouds.16 mph88%30.01 "HgN/A
4:20 PM66 °FScattered clouds.18 mph88%30.01 "HgN/A
3:50 PM68 °FScattered clouds.17 mph83%30.01 "HgN/A
3:20 PM70 °FScattered clouds.16 mph83%30.01 "HgN/A
2:50 PM68 °FScattered clouds.14 mph83%30.01 "HgN/A
2:20 PM66 °FPartly sunny.16 mph88%30.01 "HgN/A
1:50 PM66 °FPartly sunny.15 mph88%30.01 "HgN/A
1:20 PM66 °FPartly sunny.17 mph88%30.01 "HgN/A
12:50 PM66 °FPartly sunny.18 mph88%30.01 "HgN/A
12:20 PM64 °FPartly sunny.20 mph88%30.01 "HgN/A
11:50 AM66 °FPartly sunny.16 mph88%30.01 "Hg6 mi
11:20 AM64 °FDrizzle. Partly sunny.15 mph94%30.01 "Hg4 mi
10:50 AM64 °FDrizzle. Partly sunny.14 mph88%30.01 "Hg4 mi
10:20 AM63 °FDrizzle. Partly sunny.15 mph94%30.01 "Hg5 mi
9:50 AM64 °FPartly sunny.17 mph88%30.01 "Hg6 mi
9:20 AM64 °FPartly sunny.17 mph88%30.01 "Hg6 mi
Weather by CustomWeather, © 2016

See weather overviewHow to use our weather pages